Regional Weather Roundup
Issued by NWS

Home | Current Version | Previous Version | Text Only | Print | Product List | Glossary Off
Versions: 1 2 3 4 5 6 7 8 9 10 11 12 13 14 15 16 17 18 19 20 21 22 23 24 25 26 27 28 29 30 31 32 33 34 35 36 37 38 39 40 41 42 43 44 45 46 47 48 49 50

000
ASUS43 KBIS 240910
RWRND

NORTH DAKOTA REGIONAL WEATHER ROUNDUP
NATIONAL WEATHER SERVICE BISMARCK ND
300 AM CST FRI FEB 24 2017

NOTE: "FAIR" INDICATES FEW OR NO CLOUDS BELOW 12,000 FEET WITH NO
SIGNIFICANT WEATHER AND/OR OBSTRUCTIONS TO VISIBILITY.


NDZ001>003-009>011-017-241000-
NORTHWEST NORTH DAKOTA

CITY           SKY/WX    TMP DP  RH WIND       PRES   REMARKS
WILLISTON      MOCLDY    12   8  84 SW5       30.15F WCI   4
MINOT          CLOUDY    25  18  74 NW10      30.12F WCI  15
$$

NDZ018>021-031>035-040>046-241000-
SOUTHWEST NORTH DAKOTA

CITY           SKY/WX    TMP DP  RH WIND       PRES   REMARKS
BISMARCK       FAIR      15  11  83 W6        30.16S WCI   6
DICKINSON      FAIR       9   6  88 CALM      30.09S
GARRISON         N/A     12   8  84 CALM      30.13F
HETTINGER ARPT CLEAR     14   9  80 N9        30.09F WCI   2
$$

NDZ004>008-012>016-024-026-027-054-241000-
NORTHEAST NORTH DAKOTA

CITY           SKY/WX    TMP DP  RH WIND       PRES   REMARKS
GRAND FORKS    CLEAR     17   9  70 N8        30.14F WCI   7
GRND FRKS AFB  PTCLDY    16  12  84 N8        30.14F WCI   6
DEVILS LAKE    CLOUDY    17  13  84 CALM      30.13F
$$

NDZ022-023-025-028>030-036>039-047>053-241000-
SOUTHEAST NORTH DAKOTA

CITY           SKY/WX    TMP DP  RH WIND       PRES   REMARKS
FARGO          CLOUDY    20  12  71 N20G28    30.08F WCI   4
JAMESTOWN      FAIR      18  15  88 N12       30.09F WCI   5
$$





USA.gov is the U.S. government's official web portal to all federal, state and local government web resources and services.